Portada
METAR-TAF:

METAR-TAF

Aeroports :

Weipa, Austràlia

latitud: 12-40-43S, longitud: 141-55-31E, altitud: 19 m

Observació

L'informe es va fer fa 54 minuts, a les 11:00 UTC
Vent 13 kt del Est
Temperatura 26°C
Humitat 51%
Pressió 1013 hPa
Visibilitat 10 km o més

METAR: YBWP 251100Z AUTO 08013KT 9999 // NCD 26/15 Q1013

Hora: 21:54 (11:54 UTC)


TAF: manca

Observacions i pronòstics meteorològics de més de 4000 aeroports (METAR i TAF).

Les estacions disponibles són els punts grocs i vermells al mapa.

Posi el ratolí al punt desitjat per veure el nom de l'estació.

Feu clic per veure les observacions i els pronòstics meteorològics.

Per canviar el mapa: feu clic els botons verds amb una creu de color negre per apropar; al botó verd amb un guió per allunyar la imatge; o en les fletxes verdes per a mapes adjacents.


METAR-TAF: